Theta_e
311 311 318 317 322 322 324 324 326 328 330 334 337 338 340 343 347 353 350 352 354 353 354 345 338 333 328 325 328 337 339 339 338 335 329 324 325 327 328 328 328 329 326 324 325 326 325 322 320
315 316 319 319 320 323 323 324 324 325 328 327 328 338 337 340 342 347 351 351 349 356 350 341 336 329 325 324 328 337 339 338 338 337 335 332 327 326 327 326 324 326 324 325 325 323 321 320 320
314 322 320 321 322 323 324 321 322 323 323 324 325 326 334 341 345 353 353 347 350 356 348 341 335 329 325 324 330 336 338 338 339 339 337 336 333 326 327 325 324 324 325 324 323 321 320 320 321
318 319 318 321 321 322 322 321 321 322 320 321 322 323 324 339 341 338 349 354 356 354 349 345 336 333 325 325 328 336 338 339 340 339 338 337 334 326 326 324 325 325 324 323 321 320 321 321 323
318 320 322 322 321 322 321 319 320 322 321 321 321 322 324 333 324 324 339 353 356 355 351 346 338 333 328 324 327 334 338 339 339 339 338 336 330 326 325 325 325 325 323 322 321 321 320 323 328
318 319 320 321 322 322 322 321 321 321 321 322 322 322 323 335 325 323 333 343 354 355 352 344 338 333 328 324 326 332 337 338 338 338 333 333 325 325 325 325 325 324 322 321 321 320 320 326 331
319 320 319 320 321 320 321 319 321 321 321 321 321 322 323 332 326 321 336 345 353 355 352 349 338 333 327 324 326 331 334 336 336 331 328 327 325 325 325 325 325 323 322 321 321 320 324 334 340
316 318 319 320 319 320 320 318 318 318 319 318 318 321 323 323 321 319 331 344 352 356 353 351 338 333 326 323 324 326 329 329 326 324 325 325 326 325 326 325 324 322 321 321 320 320 330 340 345
314 316 317 317 316 317 316 318 317 316 316 317 317 317 319 318 318 319 323 340 350 355 355 353 346 341 338 335 324 324 323 323 322 323 325 325 328 325 326 326 323 321 321 320 320 322 333 343 345
316 316 316 316 316 316 316 316 316 316 316 316 315 316 316 317 318 319 320 331 344 352 355 353 348 344 340 340 336 325 324 324 326 326 326 330 338 338 340 329 321 321 321 321 322 325 334 342 346
317 318 317 317 316 316 317 318 317 317 319 317 317 317 317 317 318 319 319 323 336 347 354 354 350 345 342 341 342 337 337 337 338 338 330 340 341 341 338 333 323 322 321 330 331 333 340 346 348
316 316 316 316 315 315 317 316 316 317 317 317 317 317 317 317 317 318 318 320 327 342 354 354 351 347 344 343 343 340 338 338 339 341 332 341 341 342 337 334 332 329 332 339 339 342 346 349 349
318 316 315 316 316 316 316 317 316 315 314 314 315 316 317 318 318 318 318 319 321 337 348 352 350 349 346 344 344 341 340 340 341 343 337 340 339 341 337 334 331 331 335 341 344 345 348 348 344
318 318 318 318 318 317 317 316 315 317 316 314 314 315 315 316 318 318 318 319 322 331 344 352 350 349 348 345 345 343 337 340 341 341 342 332 336 334 335 326 329 335 339 343 345 346 348 345 344
317 318 320 318 316 316 316 319 320 318 316 315 315 315 316 317 318 318 318 319 321 331 341 346 350 351 349 346 345 343 342 340 339 340 342 333 331 327 329 330 334 341 344 344 343 339 343 344 343
320 320 322 321 321 320 318 319 320 319 318 318 317 317 316 316 317 317 318 319 321 325 337 345 346 349 349 348 346 344 343 341 338 339 339 327 327 326 323 333 340 343 344 345 344 342 344 342 340
322 322 322 321 321 321 320 320 320 319 318 319 319 320 319 318 316 317 317 318 320 328 333 342 346 349 348 349 348 345 343 341 338 337 335 326 326 325 323 336 342 336 343 342 341 341 343 342 342
321 322 322 322 322 321 322 322 322 321 321 321 321 321 320 320 319 318 317 318 320 331 339 344 348 349 347 348 348 346 344 342 340 335 334 325 325 325 322 338 340 333 341 341 340 340 343 343 342
321 321 322 322 322 323 324 324 324 324 323 323 322 322 321 321 320 319 317 318 320 332 343 345 348 347 345 347 346 346 344 342 341 340 337 328 325 324 323 340 336 335 338 341 336 339 342 339 339
321 322 323 323 323 324 325 325 325 325 324 323 322 322 322 321 320 319 318 317 320 325 341 346 348 347 346 348 348 346 344 342 342 341 337 331 327 324 322 338 341 337 342 337 337 339 341 337 339
322 324 324 324 324 325 326 326 325 324 323 321 320 320 319 321 320 319 317 317 319 321 337 346 347 347 347 347 347 346 344 343 342 341 340 334 330 325 323 337 343 336 340 342 340 340 340 339 335
323 322 322 324 326 328 325 329 326 325 324 322 322 323 322 319 320 320 319 317 318 322 332 343 346 346 346 346 345 344 343 341 340 342 341 336 332 325 332 337 338 339 341 341 339 339 340 338 335
322 321 323 325 328 328 326 328 327 325 324 323 323 323 324 322 320 318 319 318 318 321 331 341 346 345 346 346 346 344 341 340 341 341 340 340 333 331 325 335 339 340 340 338 338 341 338 335 330
320 324 326 327 327 332 327 327 326 325 325 324 324 324 324 323 323 320 318 318 317 319 329 337 343 344 345 345 345 344 340 340 340 341 342 341 340 332 329 337 340 339 337 339 341 339 337 334 329
322 327 329 330 331 328 326 327 327 325 325 324 323 324 324 324 321 319 317 317 317 318 327 338 342 344 346 345 344 343 342 342 337 337 341 339 339 341 338 341 340 339 338 339 339 337 334 329 327
324 326 328 330 331 329 324 330 328 323 322 324 324 325 324 323 317 317 317 317 317 318 329 339 342 342 343 341 343 342 342 342 340 335 336 336 339 342 340 342 341 339 339 340 338 334 328 326 323
323 326 323 324 325 329 329 327 323 322 324 325 325 325 326 326 320 317 317 317 317 320 332 340 340 342 341 341 341 341 342 337 334 334 333 339 342 340 340 341 340 339 340 337 333 329 327 321 319
322 322 325 324 332 333 325 328 325 321 323 325 325 325 326 327 324 320 317 316 318 324 334 340 341 343 340 340 344 343 341 334 332 324 328 333 338 339 340 340 339 339 339 335 330 326 322 318 319
321 321 323 323 325 329 333 327 322 324 323 325 325 323 324 330 328 321 317 317 320 327 335 340 340 341 340 340 344 341 334 338 331 332 331 336 338 339 339 339 339 337 332 329 325 324 319 318 315
320 320 323 326 329 328 327 328 323 322 321 323 322 321 325 332 329 323 319 320 326 334 337 339 341 341 340 340 343 341 342 340 336 337 336 337 337 338 339 338 337 330 327 325 318 318 318 314 308
Wind_Speed
3 5 5 4 7 7 15 12 11 7 8 1 5 6 3 7 5 4 2 6 6 18 24 31 29 28 26 24 26 29 28 25 23 21 21 20 19 17 14 11 11 10 10 10 9 7 5 4 3
3 6 5 5 8 13 12 9 10 11 6 6 6 8 9 8 5 6 6 7 3 19 26 32 29 29 27 25 25 29 29 26 24 22 21 19 18 17 13 11 12 11 11 10 9 7 5 3 1
6 9 8 5 10 16 12 5 6 7 4 6 5 5 6 3 7 5 11 8 4 18 25 30 30 29 28 25 26 28 29 27 24 23 21 19 18 17 13 12 12 12 11 10 9 7 5 4 1
5 6 6 10 16 10 10 2 1 3 6 5 6 10 3 5 4 11 9 2 6 15 22 29 31 29 29 27 26 28 29 27 25 23 21 19 18 17 14 13 13 12 12 11 9 7 5 2 1
6 5 10 13 17 13 5 4 5 6 4 7 5 11 4 1 8 14 9 3 8 14 20 28 31 30 27 28 27 27 28 28 26 23 21 19 18 16 15 14 13 12 11 10 9 7 5 3 2
8 6 9 14 16 9 9 7 10 12 10 9 11 10 12 9 8 17 12 5 9 15 19 28 32 30 28 28 28 28 28 27 25 23 21 20 19 17 16 15 14 13 12 10 9 7 6 4 2
10 7 13 13 6 8 8 3 7 9 11 14 6 12 9 9 9 17 15 7 6 15 20 24 34 31 29 26 28 28 28 27 25 23 22 21 20 18 18 16 15 13 12 11 9 7 5 3 1
4 5 10 11 10 13 5 9 5 11 13 15 14 9 13 6 18 18 14 7 5 12 18 21 32 33 31 30 29 28 28 27 25 23 22 21 19 18 17 17 16 14 13 11 9 7 5 3 2
3 6 9 10 10 12 6 13 10 12 17 20 24 25 22 24 23 18 13 9 8 13 18 21 25 27 26 26 30 29 27 26 25 23 22 20 19 19 17 18 16 15 14 11 9 7 6 4 3
6 6 6 6 8 9 13 17 20 19 20 24 27 28 27 23 22 20 16 13 11 14 18 23 25 26 25 23 25 28 28 26 25 24 24 19 15 15 12 16 16 15 13 10 8 7 6 3 4
1 6 6 9 9 14 19 21 21 21 21 24 25 27 25 23 24 22 19 17 15 14 17 23 26 26 27 25 23 24 22 22 21 21 23 17 15 14 14 11 14 13 12 7 6 5 3 7 5
7 8 9 13 13 16 17 22 26 26 28 27 28 29 27 26 26 24 21 18 16 16 19 25 27 27 27 25 26 24 23 22 21 21 24 19 17 15 14 12 11 12 8 8 7 5 7 6 7
9 4 9 14 19 22 23 26 27 32 29 28 29 30 32 29 27 24 22 20 18 18 20 27 31 31 29 27 25 26 26 23 22 22 24 20 17 15 14 12 10 9 9 7 6 6 6 6 6
8 14 19 21 22 21 21 20 18 25 19 15 21 26 29 31 28 26 24 22 19 20 21 24 35 35 30 30 27 26 29 25 24 21 22 26 20 19 14 14 12 10 8 8 7 7 7 6 6
14 15 15 6 5 9 16 19 25 24 17 20 22 23 24 27 27 26 23 22 19 22 23 24 29 35 35 32 30 28 26 25 23 21 22 24 22 21 17 13 13 11 10 10 9 9 10 8 8
13 9 7 3 13 15 7 18 19 12 17 23 20 20 21 25 27 25 24 22 20 21 26 26 28 33 37 34 32 29 27 25 24 22 22 27 26 22 19 12 11 10 9 8 7 7 7 6 6
8 11 19 16 10 13 10 18 16 11 18 26 31 33 32 31 32 30 27 24 22 23 27 29 31 34 38 35 32 29 28 27 26 24 23 28 26 23 20 15 13 14 9 8 7 7 8 7 7
17 18 17 19 11 18 22 29 24 30 32 31 32 31 29 32 38 35 29 25 21 23 26 29 33 38 37 35 33 29 27 27 25 26 24 27 27 25 22 16 16 17 11 10 8 11 11 9 11
16 17 19 21 20 20 22 25 24 25 29 28 33 32 33 34 37 35 30 27 23 22 25 30 34 37 37 41 39 34 33 30 27 23 24 27 26 25 23 17 19 17 13 11 11 12 10 6 11
16 18 20 20 16 24 27 27 29 25 20 25 24 26 30 31 34 33 32 30 27 24 28 31 34 37 37 39 38 34 32 30 27 24 26 27 27 25 24 19 16 17 12 14 13 12 7 5 10
13 16 16 23 26 26 23 19 8 15 16 9 14 17 20 25 30 32 32 33 29 27 28 33 33 38 38 37 34 32 29 28 28 26 26 30 26 25 24 22 15 16 13 10 13 11 10 7 8
15 13 21 25 21 14 17 9 16 10 11 9 7 14 19 20 25 32 32 33 32 29 29 31 33 40 39 39 36 36 36 36 33 30 25 28 27 25 25 22 19 15 11 13 10 10 8 7 5
14 19 24 26 19 13 13 7 11 21 7 14 18 27 28 25 26 31 35 34 35 31 30 31 33 37 37 39 35 37 36 33 32 27 27 23 26 24 25 23 20 16 12 14 11 9 7 6 3
12 19 22 5 5 5 4 8 12 12 20 21 24 34 31 29 29 33 35 34 35 34 31 31 33 37 37 38 38 34 36 32 33 31 28 24 22 24 25 24 20 18 16 14 11 8 7 6 4
13 15 5 3 6 12 9 10 10 17 23 26 26 34 34 30 29 31 33 33 33 33 30 31 36 35 36 39 35 34 33 37 39 37 28 27 25 23 28 25 22 19 18 15 11 8 5 6 3
13 6 1 6 10 15 17 5 8 19 25 25 32 31 30 21 17 19 28 33 30 32 29 30 33 37 36 33 33 33 32 33 29 33 30 27 25 25 29 27 25 21 18 14 11 8 7 5 4
9 6 10 5 8 7 2 4 5 18 27 26 30 30 26 27 11 14 22 27 29 30 27 27 31 37 35 33 34 35 33 34 29 32 34 28 27 29 30 29 27 23 19 15 12 10 7 5 2
4 6 4 1 6 7 14 8 5 18 25 26 28 28 30 26 13 13 21 24 28 26 26 26 31 37 38 36 34 34 33 29 32 35 34 35 35 31 32 31 28 24 20 15 11 10 8 5 2
4 6 2 3 4 4 8 10 2 17 20 24 25 34 31 28 16 11 16 25 27 24 27 29 31 37 36 37 33 33 33 30 36 37 36 35 35 34 30 29 27 23 20 16 13 11 8 3 3
10 12 7 3 4 6 3 5 17 20 26 22 26 34 33 31 11 8 15 19 20 21 24 30 33 35 38 34 33 28 28 33 35 29 29 32 33 32 29 29 27 24 21 17 10 11 8 5 3
Wind_Direction
193 196 178 203 237 236 248 232 254 239 222 129 291 257 271 315 296 1 329 297 227 192 190 190 188 189 189 187 179 181 181 178 170 167 166 171 171 172 173 169 167 168 168 168 168 172 175 179 181
171 159 163 224 248 235 242 211 233 243 43 310 263 244 244 258 306 303 353 0 237 180 199 191 188 191 190 187 181 182 184 180 176 174 172 173 172 177 175 172 171 172 173 177 177 181 183 197 203
157 171 212 227 236 246 262 132 255 251 290 292 263 266 299 357 19 8 337 339 250 182 192 193 188 194 189 188 185 185 188 183 181 179 179 178 178 178 175 176 173 176 179 186 187 189 190 200 229
159 192 236 241 241 249 284 143 236 241 214 253 286 268 205 27 34 3 350 328 194 192 198 200 191 195 190 189 189 190 190 187 183 184 186 185 183 179 176 179 178 179 188 191 194 197 209 218 223
180 230 241 238 246 249 227 240 254 255 250 247 285 247 242 244 38 16 357 278 211 201 195 202 195 195 194 191 192 193 192 191 188 189 191 191 186 181 179 179 183 189 196 198 200 204 217 228 227
203 268 237 245 240 202 263 261 265 257 261 260 268 281 261 192 349 357 341 305 229 212 199 200 197 196 194 194 194 196 196 197 197 196 196 191 186 184 181 181 189 198 203 204 208 213 217 224 231
268 235 254 279 283 258 252 296 257 272 269 260 281 277 261 226 303 340 338 320 224 212 198 199 196 195 195 198 198 199 199 203 205 202 196 188 187 187 183 185 195 204 209 210 216 223 219 217 231
256 264 262 250 262 250 227 261 253 260 269 280 274 254 245 237 310 317 322 317 237 211 202 199 196 197 195 196 200 202 204 206 205 200 193 189 190 188 189 190 197 204 212 216 224 227 217 210 254
204 246 259 263 266 273 261 265 264 270 267 266 268 268 270 286 297 302 298 292 246 212 209 204 196 194 192 195 198 199 202 203 201 196 193 190 191 190 195 195 197 204 212 219 229 235 218 216 275
256 260 311 327 309 273 287 276 278 276 268 263 266 267 271 276 282 286 284 273 255 239 213 203 198 195 188 190 196 196 198 198 195 195 194 190 186 188 190 206 202 205 214 223 231 237 232 265 283
187 275 356 285 278 284 281 277 272 269 261 260 267 272 271 269 272 273 271 264 255 245 218 206 200 197 190 189 191 187 192 191 192 191 195 183 191 198 189 201 203 208 216 217 232 237 260 247 248
274 260 285 287 289 276 269 276 272 268 270 270 269 269 273 270 267 266 263 262 253 238 222 203 201 198 192 193 188 187 189 189 192 194 196 192 187 194 192 191 199 201 211 213 209 213 234 264 265
249 288 280 279 277 270 272 267 271 274 273 270 268 267 266 264 265 263 262 260 249 235 223 214 202 199 196 193 191 188 185 189 193 194 198 197 190 193 196 196 191 200 214 223 226 231 239 256 260
326 292 286 280 276 274 271 273 270 271 274 267 267 266 263 262 260 261 260 258 252 228 222 221 213 202 200 196 193 194 192 192 191 194 198 199 193 204 196 201 194 201 211 224 231 245 242 245 253
295 290 286 251 310 270 292 281 254 260 266 259 260 262 261 259 259 257 255 252 249 232 220 214 217 211 204 201 197 195 197 194 192 193 197 197 197 207 196 195 194 201 209 217 230 250 247 248 268
274 271 289 276 300 280 274 277 294 293 262 265 261 263 260 258 254 255 253 250 245 235 225 215 215 215 209 203 200 196 197 194 193 193 196 202 205 207 202 196 196 208 209 208 218 225 232 244 269
183 308 313 309 267 274 253 284 290 250 263 263 265 267 264 259 258 252 249 250 246 239 223 219 209 213 212 202 202 197 198 197 197 196 198 206 207 207 202 192 202 213 211 212 224 237 236 260 279
309 304 305 295 305 281 278 274 275 275 273 270 270 271 262 257 255 252 244 243 244 233 221 215 212 207 207 200 198 199 200 198 197 202 199 204 204 205 200 195 202 215 213 218 222 230 249 260 278
296 295 296 295 301 296 283 290 288 282 276 272 269 266 260 255 254 256 247 239 239 232 218 211 208 207 207 204 197 197 199 196 196 194 193 202 204 205 202 197 209 212 218 212 238 249 256 271 285
295 296 292 303 309 311 299 298 291 279 268 267 270 271 265 255 248 251 244 236 228 227 219 211 206 204 209 208 196 198 198 197 195 191 198 203 204 205 203 200 205 211 207 230 240 244 249 259 281
308 301 310 307 314 301 295 306 300 315 286 269 281 278 274 262 246 247 245 238 230 223 220 213 207 202 205 198 194 193 194 195 193 192 196 201 202 204 202 203 197 213 205 223 231 242 249 256 279
308 335 313 309 319 309 336 294 302 306 283 272 300 312 300 274 252 249 243 240 229 224 216 212 207 205 207 200 194 193 191 192 196 191 191 197 201 199 199 203 209 207 199 208 223 236 242 248 246
292 319 303 296 294 306 284 258 270 309 308 329 317 320 308 289 268 250 243 234 231 218 215 213 208 204 203 200 192 196 193 196 189 184 193 189 196 195 202 204 204 208 201 218 224 231 226 239 218
307 306 317 300 306 263 337 315 302 353 326 316 325 317 307 296 278 254 242 229 224 216 210 210 210 206 201 201 194 193 193 189 184 180 189 184 185 192 196 200 204 209 216 217 218 224 234 234 222
320 352 322 324 304 309 5 315 287 332 330 325 306 313 306 296 284 248 230 221 215 212 208 204 204 205 194 198 192 190 192 189 188 191 186 183 181 184 194 200 206 208 212 210 210 210 227 222 217
313 29 2 305 329 308 310 304 307 325 308 322 328 315 309 306 279 237 217 214 209 207 203 204 199 199 199 192 191 187 187 187 183 189 183 180 182 182 195 197 200 204 203 203 215 204 198 205 199
359 327 334 283 264 267 263 266 298 325 332 335 331 332 326 319 285 243 220 207 205 199 200 200 195 195 197 193 186 188 188 186 185 180 182 175 178 190 197 200 199 195 195 197 195 187 192 184 177
308 357 321 281 305 299 331 338 293 310 323 327 335 337 329 316 289 237 228 208 195 196 194 195 192 190 191 185 190 181 181 182 188 184 180 184 189 192 193 191 190 191 191 190 189 176 176 168 69
2 333 294 240 247 292 318 335 342 323 326 329 334 337 329 308 298 234 226 206 189 190 191 190 193 189 189 184 184 182 181 183 183 181 184 191 193 194 189 188 183 178 175 173 177 170 159 122 66
334 343 345 285 314 274 256 290 350 353 327 330 339 334 336 334 307 214 189 186 187 185 188 187 188 186 185 181 180 165 172 185 178 185 192 196 189 187 188 180 174 171 166 154 149 158 143 123 81